Time,TemperatureF,DewpointF,PressureIn,WindDirection,WindDirectionDegrees,WindSpeedMPH,WindSpeedGustMPH,Humidity,HourlyPrecipIn,Conditions,Clouds,dailyrainin,SoftwareType,DateUTC
2013-04-11 07:19:00,40.8,33.8,29.95,NE,35,2.0,14.0,76,0.00,,,0.00,Wunderground v.1.15,2013-04-11 12:19:00,
2013-04-11 07:25:00,40.6,33.6,29.95,NNE,12,2.0,14.0,76,0.00,,,0.00,Wunderground v.1.15,2013-04-11 12:25:00,
2013-04-11 07:30:00,40.7,33.7,29.96,North,352,2.0,14.0,76,0.00,,,0.00,Wunderground v.1.15,2013-04-11 12:30:00,
2013-04-11 07:36:00,40.5,33.9,29.96,NW,323,3.0,14.0,77,0.00,,,0.00,Wunderground v.1.15,2013-04-11 12:36:00,
2013-04-11 07:42:00,40.5,34.2,29.96,NNW,342,3.0,14.0,78,0.00,,,0.00,Wunderground v.1.15,2013-04-11 12:42:00,
2013-04-11 07:48:00,40.7,34.4,29.97,NW,326,3.0,14.0,78,0.00,,,0.00,Wunderground v.1.15,2013-04-11 12:48:00,
2013-04-11 07:54:00,41.3,34.3,29.97,NNW,339,3.0,14.0,76,0.00,,,0.00,Wunderground v.1.15,2013-04-11 12:54:00,
2013-04-11 08:00:00,42.0,34.6,29.98,North,6,4.0,14.0,75,0.00,,,0.00,Wunderground v.1.15,2013-04-11 13:00:00,
2013-04-11 08:05:00,42.5,34.8,29.98,NNE,18,4.0,14.0,74,0.00,,,0.00,Wunderground v.1.15,2013-04-11 13:05:00,
2013-04-11 08:10:00,43.0,34.9,29.98,NNW,342,4.0,4.0,73,0.00,,,0.00,Wunderground v.1.15,2013-04-11 13:10:00,
2013-04-11 08:15:00,43.4,35.0,29.98,NE,35,5.0,14.0,72,0.00,,,0.00,Wunderground v.1.15,2013-04-11 13:15:00,
2013-04-11 08:21:00,44.0,35.2,29.98,North,3,5.0,14.0,71,0.00,,,0.00,Wunderground v.1.15,2013-04-11 13:21:00,
2013-04-11 08:27:00,44.4,34.9,29.98,North,9,6.0,14.0,69,0.00,,,0.00,Wunderground v.1.15,2013-04-11 13:27:00,
2013-04-11 08:32:00,44.8,35.2,29.98,ENE,57,7.0,14.0,69,0.00,,,0.00,Wunderground v.1.15,2013-04-11 13:32:00,
2013-04-11 08:38:00,45.0,34.7,29.98,NE,43,7.0,14.0,67,0.00,,,0.00,Wunderground v.1.15,2013-04-11 13:38:00,
2013-04-11 08:43:00,45.3,35.0,29.99,ENE,68,7.0,14.0,67,0.00,,,0.00,Wunderground v.1.15,2013-04-11 13:43:00,
2013-04-11 08:49:00,45.1,34.8,29.99,NE,38,9.0,14.0,67,0.00,,,0.00,Wunderground v.1.15,2013-04-11 13:49:00,
2013-04-11 08:54:00,45.0,34.3,29.99,ENE,60,10.0,14.0,66,0.00,,,0.00,Wunderground v.1.15,2013-04-11 13:54:00,
2013-04-11 09:00:00,45.3,35.0,29.99,NE,53,9.0,9.0,67,0.00,,,0.00,Wunderground v.1.15,2013-04-11 14:00:00,
2013-04-11 09:05:00,45.4,35.5,30.00,ENE,59,8.0,14.0,68,0.00,,,0.00,Wunderground v.1.15,2013-04-11 14:05:00,
2013-04-11 09:10:00,45.7,36.1,30.00,ENE,63,8.0,8.0,69,0.00,,,0.00,Wunderground v.1.15,2013-04-11 14:10:00,
2013-04-11 09:16:00,45.8,35.1,30.00,NNE,18,8.0,14.0,66,0.00,,,0.00,Wunderground v.1.15,2013-04-11 14:16:00,
2013-04-11 09:21:00,45.8,35.8,30.00,NNE,32,8.0,14.0,68,0.00,,,0.00,Wunderground v.1.15,2013-04-11 14:21:00,
2013-04-11 09:27:00,46.1,35.7,30.00,ENE,72,7.0,14.0,67,0.00,,,0.00,Wunderground v.1.15,2013-04-11 14:27:00,
2013-04-11 09:33:00,46.1,36.1,30.00,NE,51,7.0,14.0,68,0.00,,,0.00,Wunderground v.1.15,2013-04-11 14:33:00,
2013-04-11 09:38:00,46.3,36.3,30.00,ENE,60,7.0,14.0,68,0.00,,,0.00,Wunderground v.1.15,2013-04-11 14:38:00,
2013-04-11 09:43:00,46.4,36.0,30.00,ENE,64,7.0,14.0,67,0.00,,,0.00,Wunderground v.1.15,2013-04-11 14:43:00,
2013-04-11 09:48:00,46.5,35.7,29.99,NNE,20,7.0,14.0,66,0.00,,,0.00,Wunderground v.1.15,2013-04-11 14:48:00,
2013-04-11 09:54:00,46.8,36.0,30.00,ENE,64,6.0,14.0,66,0.00,,,0.00,Wunderground v.1.15,2013-04-11 14:54:00,
2013-04-11 10:00:00,46.9,35.7,30.00,ENE,67,6.0,14.0,65,0.00,,,0.00,Wunderground v.1.15,2013-04-11 15:00:00,
2013-04-11 10:05:00,47.2,36.0,29.99,NE,56,7.0,14.0,65,0.00,,,0.00,Wunderground v.1.15,2013-04-11 15:05:00,
2013-04-11 10:11:00,47.2,36.0,29.99,ENE,76,7.0,14.0,65,0.00,,,0.00,Wunderground v.1.15,2013-04-11 15:11:00,
2013-04-11 10:16:00,47.7,37.3,29.99,ENE,76,6.0,14.0,67,0.00,,,0.00,Wunderground v.1.15,2013-04-11 15:16:00,
2013-04-11 10:21:00,47.7,35.7,29.99,North,354,6.0,14.0,63,0.00,,,0.00,Wunderground v.1.15,2013-04-11 15:21:00,
2013-04-11 10:26:00,47.8,35.8,29.99,NE,49,7.0,14.0,63,0.00,,,0.00,Wunderground v.1.15,2013-04-11 15:26:00,
2013-04-11 10:31:00,47.8,35.8,29.99,NE,35,7.0,14.0,63,0.00,,,0.00,Wunderground v.1.15,2013-04-11 15:31:00,
2013-04-11 10:36:00,48.0,36.0,29.99,NE,56,7.0,14.0,63,0.00,,,0.00,Wunderground v.1.15,2013-04-11 15:36:00,
2013-04-11 10:42:00,48.0,35.2,30.00,NE,51,6.0,14.0,61,0.00,,,0.00,Wunderground v.1.15,2013-04-11 15:42:00,
2013-04-11 10:47:00,48.1,34.9,29.99,NE,44,5.0,14.0,60,0.00,,,0.00,Wunderground v.1.15,2013-04-11 15:47:00,
2013-04-11 10:52:00,48.9,35.6,29.99,NE,45,6.0,14.0,60,0.00,,,0.00,Wunderground v.1.15,2013-04-11 15:52:00,
2013-04-11 10:58:00,49.3,36.4,29.99,ENE,65,7.0,14.0,61,0.00,,,0.00,Wunderground v.1.15,2013-04-11 15:58:00,
2013-04-11 11:04:00,49.5,35.8,29.99,NE,56,7.0,14.0,59,0.00,,,0.00,Wunderground v.1.15,2013-04-11 16:04:00,
2013-04-11 11:09:00,49.6,35.8,29.99,ENE,59,7.0,14.0,59,0.00,,,0.00,Wunderground v.1.15,2013-04-11 16:09:00,
2013-04-11 11:14:00,49.3,34.7,29.99,ENE,76,7.0,14.0,57,0.00,,,0.00,Wunderground v.1.15,2013-04-11 16:14:00,
2013-04-11 11:19:00,49.5,34.0,29.99,NE,56,6.0,14.0,55,0.00,,,0.00,Wunderground v.1.15,2013-04-11 16:19:00,
2013-04-11 11:25:00,50.3,36.1,29.99,ENE,73,5.0,14.0,58,0.00,,,0.00,Wunderground v.1.15,2013-04-11 16:25:00,
2013-04-11 11:30:00,50.8,35.7,29.99,ENE,58,6.0,6.0,56,0.00,,,0.00,Wunderground v.1.15,2013-04-11 16:30:00,
2013-04-11 11:36:00,51.0,35.4,29.99,NE,37,7.0,14.0,55,0.00,,,0.00,Wunderground v.1.15,2013-04-11 16:36:00,
2013-04-11 11:42:00,51.3,35.2,29.98,NNE,26,7.0,14.0,54,0.00,,,0.00,Wunderground v.1.15,2013-04-11 16:42:00,
2013-04-11 11:47:00,51.3,35.7,29.98,NE,37,6.0,14.0,55,0.00,,,0.00,Wunderground v.1.15,2013-04-11 16:47:00,
2013-04-11 11:52:00,51.6,35.9,29.97,East,96,6.0,14.0,55,0.00,,,0.00,Wunderground v.1.15,2013-04-11 16:52:00,
2013-04-11 11:58:00,51.6,35.5,29.97,North,1,5.0,14.0,54,0.00,,,0.00,Wunderground v.1.15,2013-04-11 16:58:00,
2013-04-11 12:04:00,52.5,36.8,29.97,ENE,61,5.0,14.0,55,0.00,,,0.00,Wunderground v.1.15,2013-04-11 17:04:00,
2013-04-11 12:09:00,52.4,36.2,29.97,NNE,26,5.0,14.0,54,0.00,,,0.00,Wunderground v.1.15,2013-04-11 17:09:00,
2013-04-11 12:14:00,52.7,36.0,29.97,North,9,5.0,14.0,53,0.00,,,0.00,Wunderground v.1.15,2013-04-11 17:14:00,
2013-04-11 12:20:00,52.8,36.1,29.96,NE,54,6.0,14.0,53,0.00,,,0.00,Wunderground v.1.15,2013-04-11 17:20:00,
2013-04-11 12:25:00,52.8,35.6,29.96,North,7,6.0,14.0,52,0.00,,,0.00,Wunderground v.1.15,2013-04-11 17:25:00,
2013-04-11 12:31:00,53.3,36.6,29.96,NNW,329,5.0,14.0,53,0.00,,,0.00,Wunderground v.1.15,2013-04-11 17:31:00,
2013-04-11 12:37:00,53.5,36.3,29.95,ENE,60,5.0,14.0,52,0.00,,,0.00,Wunderground v.1.15,2013-04-11 17:37:00,
2013-04-11 12:42:00,54.3,36.5,29.95,East,89,5.0,14.0,51,0.00,,,0.00,Wunderground v.1.15,2013-04-11 17:42:00,
2013-04-11 12:47:00,54.7,36.9,29.95,ENE,65,6.0,14.0,51,0.00,,,0.00,Wunderground v.1.15,2013-04-11 17:47:00,
2013-04-11 12:53:00,54.7,35.9,29.95,ENE,70,6.0,14.0,49,0.00,,,0.00,Wunderground v.1.15,2013-04-11 17:53:00,
2013-04-11 12:58:00,54.6,36.8,29.94,ENE,68,6.0,14.0,51,0.00,,,0.00,Wunderground v.1.15,2013-04-11 17:58:00,
2013-04-11 13:03:00,54.9,38.1,29.93,East,83,4.0,14.0,53,0.00,,,0.00,Wunderground v.1.15,2013-04-11 18:03:00,
2013-04-11 13:09:00,55.3,35.4,29.93,NE,37,5.0,14.0,47,0.00,,,0.00,Wunderground v.1.15,2013-04-11 18:09:00,
2013-04-11 13:14:00,55.5,35.6,29.93,North,3,5.0,14.0,47,0.00,,,0.00,Wunderground v.1.15,2013-04-11 18:14:00,
2013-04-11 13:24:00,56.3,37.4,29.92,NE,53,5.0,14.0,49,0.00,,,0.00,Wunderground v.1.15,2013-04-11 18:24:00,
2013-04-11 13:29:00,56.4,36.9,29.92,ENE,72,5.0,14.0,48,0.00,,,0.00,Wunderground v.1.15,2013-04-11 18:29:00,
2013-04-11 13:38:00,56.7,36.1,29.91,ENE,72,5.0,14.0,46,0.00,,,0.00,Wunderground v.1.15,2013-04-11 18:38:00,
2013-04-11 13:43:00,56.8,36.8,29.91,NE,44,5.0,14.0,47,0.00,,,0.00,Wunderground v.1.15,2013-04-11 18:43:00,
2013-04-11 13:48:00,57.0,37.0,29.91,West,271,3.0,14.0,47,0.00,,,0.00,Wunderground v.1.15,2013-04-11 18:48:00,
2013-04-11 13:53:00,57.5,38.5,29.90,East,101,4.0,14.0,49,0.00,,,0.00,Wunderground v.1.15,2013-04-11 18:53:00,
2013-04-11 13:58:00,57.9,37.8,29.90,South,169,5.0,14.0,47,0.00,,,0.00,Wunderground v.1.15,2013-04-11 18:58:00,
2013-04-11 14:04:00,58.2,37.5,29.90,ENE,74,4.0,14.0,46,0.00,,,0.00,Wunderground v.1.15,2013-04-11 19:04:00,
2013-04-11 14:09:00,58.6,39.0,29.90,ENE,64,4.0,14.0,48,0.00,,,0.00,Wunderground v.1.15,2013-04-11 19:09:00,
2013-04-11 14:14:00,58.6,38.4,29.90,East,97,4.0,14.0,47,0.00,,,0.00,Wunderground v.1.15,2013-04-11 19:14:00,
2013-04-11 14:20:00,58.7,36.8,29.90,ENE,72,6.0,6.0,44,0.00,,,0.00,Wunderground v.1.15,2013-04-11 19:20:00,
2013-04-11 14:25:00,58.9,38.1,29.89,ENE,70,5.0,14.0,46,0.00,,,0.00,Wunderground v.1.15,2013-04-11 19:25:00,
2013-04-11 14:31:00,59.8,39.0,29.89,East,98,4.0,14.0,46,0.00,,,0.00,Wunderground v.1.15,2013-04-11 19:31:00,
2013-04-11 14:37:00,59.6,39.3,29.89,East,94,4.0,14.0,47,0.00,,,0.00,Wunderground v.1.15,2013-04-11 19:37:00,
2013-04-11 14:42:00,60.0,40.2,29.88,SE,124,4.0,14.0,48,0.00,,,0.00,Wunderground v.1.15,2013-04-11 19:42:00,
2013-04-11 14:47:00,60.7,41.4,29.88,SE,133,3.0,14.0,49,0.00,,,0.00,Wunderground v.1.15,2013-04-11 19:47:00,
2013-04-11 14:52:00,60.9,39.4,29.88,ESE,109,4.0,14.0,45,0.00,,,0.00,Wunderground v.1.15,2013-04-11 19:52:00,
2013-04-11 14:57:00,60.5,39.0,29.88,SSE,159,5.0,14.0,45,0.00,,,0.00,Wunderground v.1.15,2013-04-11 19:57:00,
2013-04-11 15:03:00,60.8,38.7,29.87,ENE,71,4.0,14.0,44,0.00,,,0.00,Wunderground v.1.15,2013-04-11 20:03:00,
2013-04-11 15:08:00,61.0,40.6,29.87,SE,127,4.0,14.0,47,0.00,,,0.00,Wunderground v.1.15,2013-04-11 20:08:00,
2013-04-11 15:14:00,61.2,38.5,29.87,West,272,4.0,14.0,43,0.00,,,0.00,Wunderground v.1.15,2013-04-11 20:14:00,
2013-04-11 15:20:00,61.8,39.6,29.87,SSE,149,3.0,14.0,44,0.00,,,0.00,Wunderground v.1.15,2013-04-11 20:20:00,
2013-04-11 15:25:00,62.0,39.8,29.86,South,176,3.0,14.0,44,0.00,,,0.00,Wunderground v.1.15,2013-04-11 20:25:00,
2013-04-11 15:30:00,62.6,40.4,29.86,SSE,149,3.0,3.0,44,0.00,,,0.00,Wunderground v.1.15,2013-04-11 20:30:00,
2013-04-11 15:36:00,63.9,41.0,29.86,SSW,195,1.0,14.0,43,0.00,,,0.00,Wunderground v.1.15,2013-04-11 20:36:00,
2013-04-11 15:41:00,64.1,40.5,29.85,East,101,1.0,14.0,42,0.00,,,0.00,Wunderground v.1.15,2013-04-11 20:41:00,
2013-04-11 15:46:00,63.7,40.2,29.85,SW,231,3.0,14.0,42,0.00,,,0.00,Wunderground v.1.15,2013-04-11 20:46:00,
2013-04-11 15:51:00,63.4,39.9,29.85,ESE,121,4.0,14.0,42,0.00,,,0.00,Wunderground v.1.15,2013-04-11 20:51:00,
2013-04-11 15:57:00,63.5,41.8,29.85,SW,235,3.0,14.0,45,0.00,,,0.00,Wunderground v.1.15,2013-04-11 20:57:00,
2013-04-11 16:03:00,63.6,40.1,29.84,SW,221,4.0,14.0,42,0.00,,,0.00,Wunderground v.1.15,2013-04-11 21:03:00,
2013-04-11 16:08:00,63.7,40.8,29.84,WNW,295,4.0,14.0,43,0.00,,,0.00,Wunderground v.1.15,2013-04-11 21:08:00,
2013-04-11 16:13:00,63.5,40.0,29.83,NW,307,3.0,14.0,42,0.00,,,0.00,Wunderground v.1.15,2013-04-11 21:13:00,
2013-04-11 16:19:00,64.1,41.1,29.83,South,187,2.0,14.0,43,0.00,,,0.00,Wunderground v.1.15,2013-04-11 21:19:00,
2013-04-11 16:25:00,64.6,41.0,29.83,SSW,201,4.0,14.0,42,0.00,,,0.00,Wunderground v.1.15,2013-04-11 21:25:00,
2013-04-11 16:30:00,64.5,40.9,29.83,ESE,114,4.0,14.0,42,0.00,,,0.00,Wunderground v.1.15,2013-04-11 21:30:00,
2013-04-11 16:35:00,64.2,41.8,29.83,SE,127,4.0,14.0,44,0.00,,,0.00,Wunderground v.1.15,2013-04-11 21:35:00,
2013-04-11 16:40:00,65.0,41.9,29.83,ESE,113,3.0,14.0,43,0.00,,,0.00,Wunderground v.1.15,2013-04-11 21:40:00,
2013-04-11 16:45:00,64.9,41.2,29.83,NNE,32,3.0,14.0,42,0.00,,,0.00,Wunderground v.1.15,2013-04-11 21:45:00,
2013-04-11 16:50:00,64.7,41.1,29.83,SE,131,4.0,14.0,42,0.00,,,0.00,Wunderground v.1.15,2013-04-11 21:50:00,
2013-04-11 16:56:00,64.4,41.4,29.83,East,100,5.0,14.0,43,0.00,,,0.00,Wunderground v.1.15,2013-04-11 21:56:00,
2013-04-11 17:02:00,64.1,39.9,29.83,ESE,108,5.0,14.0,41,0.00,,,0.00,Wunderground v.1.15,2013-04-11 22:02:00,
2013-04-11 17:07:00,64.0,40.4,29.83,ESE,121,4.0,14.0,42,0.00,,,0.00,Wunderground v.1.15,2013-04-11 22:07:00,
2013-04-11 17:12:00,64.6,40.4,29.82,SE,128,3.0,14.0,41,0.00,,,0.00,Wunderground v.1.15,2013-04-11 22:12:00,
2013-04-11 17:18:00,64.4,41.4,29.82,East,79,3.0,14.0,43,0.00,,,0.00,Wunderground v.1.15,2013-04-11 22:18:00,
2013-04-11 17:23:00,65.2,41.5,29.82,SE,132,2.0,14.0,42,0.00,,,0.00,Wunderground v.1.15,2013-04-11 22:23:00,
2013-04-11 17:28:00,65.9,41.5,29.82,SSE,149,1.0,14.0,41,0.00,,,0.00,Wunderground v.1.15,2013-04-11 22:28:00,
2013-04-11 17:33:00,65.8,42.1,29.82,SW,236,3.0,14.0,42,0.00,,,0.00,Wunderground v.1.15,2013-04-11 22:33:00,
2013-04-11 17:39:00,66.0,41.6,29.82,NW,322,2.0,14.0,41,0.00,,,0.00,Wunderground v.1.15,2013-04-11 22:39:00,
2013-04-11 17:44:00,65.5,41.8,29.82,ESE,121,2.0,14.0,42,0.00,,,0.00,Wunderground v.1.15,2013-04-11 22:44:00,
2013-04-11 17:49:00,65.5,42.4,29.82,SE,127,3.0,14.0,43,0.00,,,0.00,Wunderground v.1.15,2013-04-11 22:49:00,
2013-04-11 17:55:00,65.1,40.8,29.82,ESE,118,3.0,14.0,41,0.00,,,0.00,Wunderground v.1.15,2013-04-11 22:55:00,
2013-04-11 18:00:00,65.2,42.1,29.82,East,100,4.0,14.0,43,0.00,,,0.00,Wunderground v.1.15,2013-04-11 23:00:00,
2013-04-11 18:05:00,65.0,42.5,29.82,ESE,105,5.0,14.0,44,0.00,,,0.00,Wunderground v.1.15,2013-04-11 23:05:00,
2013-04-11 18:11:00,64.6,41.6,29.82,East,87,4.0,14.0,43,0.00,,,0.00,Wunderground v.1.15,2013-04-11 23:11:00,
2013-04-11 18:16:00,64.5,40.9,29.82,SSE,149,5.0,14.0,42,0.00,,,0.00,Wunderground v.1.15,2013-04-11 23:16:00,
2013-04-11 18:21:00,64.2,41.2,29.82,East,101,6.0,14.0,43,0.00,,,0.00,Wunderground v.1.15,2013-04-11 23:21:00,
2013-04-11 18:27:00,64.0,41.6,29.82,ESE,106,6.0,14.0,44,0.00,,,0.00,Wunderground v.1.15,2013-04-11 23:27:00,
2013-04-11 18:32:00,64.1,42.3,29.82,ENE,61,6.0,14.0,45,0.00,,,0.00,Wunderground v.1.15,2013-04-11 23:32:00,
2013-04-11 18:38:00,63.7,41.9,29.82,NE,56,6.0,14.0,45,0.00,,,0.00,Wunderground v.1.15,2013-04-11 23:38:00,
2013-04-11 18:44:00,63.7,41.9,29.81,East,91,6.0,14.0,45,0.00,,,0.00,Wunderground v.1.15,2013-04-11 23:44:00,
2013-04-11 18:49:00,63.4,41.7,29.81,East,93,6.0,14.0,45,0.00,,,0.00,Wunderground v.1.15,2013-04-11 23:49:00,
2013-04-11 18:54:00,63.4,42.2,29.82,East,91,6.0,14.0,46,0.00,,,0.00,Wunderground v.1.15,2013-04-11 23:54:00,
2013-04-11 18:59:00,63.3,42.2,29.82,ENE,77,6.0,14.0,46,0.00,,,0.00,Wunderground v.1.15,2013-04-11 23:59:00,
2013-04-11 19:04:00,63.3,42.7,29.81,East,91,6.0,14.0,47,0.00,,,0.00,Wunderground v.1.15,2013-04-12 00:04:00,
2013-04-11 19:10:00,63.0,42.4,29.82,ESE,104,6.0,14.0,47,0.00,,,0.00,Wunderground v.1.15,2013-04-12 00:10:00,
2013-04-11 19:16:00,62.8,42.8,29.82,ESE,121,6.0,14.0,48,0.00,,,0.00,Wunderground v.1.15,2013-04-12 00:16:00,
2013-04-11 19:20:00,62.6,42.1,29.82,East,96,6.0,14.0,47,0.00,,,0.00,Wunderground v.1.15,2013-04-12 00:20:00,
2013-04-11 19:26:00,62.3,42.9,29.82,ESE,111,5.0,14.0,49,0.00,,,0.00,Wunderground v.1.15,2013-04-12 00:26:00,
2013-04-11 19:32:00,62.0,42.1,29.82,ESE,103,5.0,14.0,48,0.00,,,0.00,Wunderground v.1.15,2013-04-12 00:32:00,
2013-04-11 19:37:00,61.7,42.3,29.82,East,84,5.0,14.0,49,0.00,,,0.00,Wunderground v.1.15,2013-04-12 00:37:00,
2013-04-11 19:42:00,61.2,42.9,29.82,East,101,4.0,14.0,51,0.00,,,0.00,Wunderground v.1.15,2013-04-12 00:42:00,
2013-04-11 19:47:00,60.6,42.9,29.82,ESE,113,4.0,14.0,52,0.00,,,0.00,Wunderground v.1.15,2013-04-12 00:47:00,
2013-04-11 19:52:00,60.0,42.8,29.83,East,93,4.0,14.0,53,0.00,,,0.00,Wunderground v.1.15,2013-04-12 00:52:00,
2013-04-11 19:57:00,59.3,43.1,29.83,ESE,102,2.0,14.0,55,0.00,,,0.00,Wunderground v.1.15,2013-04-12 00:57:00,
2013-04-11 20:03:00,58.6,42.9,29.83,SE,125,2.0,14.0,56,0.00,,,0.00,Wunderground v.1.15,2013-04-12 01:03:00,
2013-04-11 20:09:00,58.0,43.3,29.83,ESE,121,1.0,14.0,58,0.00,,,0.00,Wunderground v.1.15,2013-04-12 01:09:00,
2013-04-11 20:15:00,57.5,43.3,29.83,ESE,121,1.0,14.0,59,0.00,,,0.00,Wunderground v.1.15,2013-04-12 01:15:00,
2013-04-11 20:20:00,57.1,42.9,29.83,ESE,121,1.0,1.0,59,0.00,,,0.00,Wunderground v.1.15,2013-04-12 01:20:00,
2013-04-11 20:25:00,56.8,43.1,29.83,SE,127,1.0,14.0,60,0.00,,,0.00,Wunderground v.1.15,2013-04-12 01:25:00,
2013-04-11 20:31:00,56.6,42.4,29.83,SSW,197,1.0,14.0,59,0.00,,,0.00,Wunderground v.1.15,2013-04-12 01:31:00,
2013-04-11 20:36:00,56.4,42.7,29.84,ESE,111,2.0,14.0,60,0.00,,,0.00,Wunderground v.1.15,2013-04-12 01:36:00,
2013-04-11 20:41:00,55.7,42.9,29.84,ESE,115,4.0,14.0,62,0.00,,,0.00,Wunderground v.1.15,2013-04-12 01:41:00,
2013-04-11 20:47:00,55.2,43.2,29.84,SE,136,4.0,14.0,64,0.00,,,0.00,Wunderground v.1.15,2013-04-12 01:47:00,
2013-04-11 20:52:00,55.0,43.0,29.84,SE,124,3.0,14.0,64,0.00,,,0.00,Wunderground v.1.15,2013-04-12 01:52:00,
2013-04-11 20:57:00,54.8,43.7,29.84,ESE,104,3.0,14.0,66,0.00,,,0.00,Wunderground v.1.15,2013-04-12 01:57:00,
2013-04-11 21:02:00,54.0,43.3,29.84,SE,125,2.0,14.0,67,0.00,,,0.00,Wunderground v.1.15,2013-04-12 02:02:00,
2013-04-11 21:08:00,53.7,43.8,29.85,SE,138,2.0,14.0,69,0.00,,,0.00,Wunderground v.1.15,2013-04-12 02:08:00,
2013-04-11 21:13:00,53.8,44.2,29.85,SSE,149,2.0,14.0,70,0.00,,,0.00,Wunderground v.1.15,2013-04-12 02:13:00,
2013-04-11 21:18:00,53.7,44.1,29.85,South,172,3.0,14.0,70,0.00,,,0.00,Wunderground v.1.15,2013-04-12 02:18:00,
2013-04-11 21:24:00,53.7,44.5,29.85,SSE,157,3.0,14.0,71,0.00,,,0.00,Wunderground v.1.15,2013-04-12 02:24:00,
2013-04-11 21:29:00,53.5,44.3,29.86,SSE,162,3.0,14.0,71,0.00,,,0.00,Wunderground v.1.15,2013-04-12 02:29:00,
2013-04-11 21:34:00,53.3,44.1,29.86,SSE,162,2.0,14.0,71,0.00,,,0.00,Wunderground v.1.15,2013-04-12 02:34:00,
2013-04-11 21:39:00,53.3,44.5,29.87,SE,124,3.0,14.0,72,0.00,,,0.00,Wunderground v.1.15,2013-04-12 02:39:00,
2013-04-11 21:44:00,52.9,44.5,29.87,East,87,3.0,14.0,73,0.00,,,0.00,Wunderground v.1.15,2013-04-12 02:44:00,
2013-04-11 21:49:00,52.2,44.2,29.87,East,90,2.0,14.0,74,0.00,,,0.00,Wunderground v.1.15,2013-04-12 02:49:00,
2013-04-11 21:55:00,51.9,43.9,29.87,SSE,163,1.0,14.0,74,0.00,,,0.00,Wunderground v.1.15,2013-04-12 02:55:00,
2013-04-11 22:00:00,52.0,44.0,29.88,South,170,2.0,14.0,74,0.00,,,0.00,Wunderground v.1.15,2013-04-12 03:00:00,
2013-04-11 22:05:00,52.1,44.1,29.88,SSE,159,2.0,14.0,74,0.00,,,0.00,Wunderground v.1.15,2013-04-12 03:05:00,
2013-04-11 22:11:00,51.9,43.9,29.88,SE,142,1.0,14.0,74,0.00,,,0.00,Wunderground v.1.15,2013-04-12 03:11:00,
2013-04-11 22:16:00,51.7,44.0,29.89,SSE,153,1.0,14.0,75,0.00,,,0.00,Wunderground v.1.15,2013-04-12 03:16:00,
2013-04-11 22:21:00,51.6,43.9,29.88,SSE,153,0.0,14.0,75,0.00,,,0.00,Wunderground v.1.15,2013-04-12 03:21:00,
2013-04-11 22:27:00,51.2,43.9,29.88,SSE,154,0.0,14.0,76,0.00,,,0.00,Wunderground v.1.15,2013-04-12 03:27:00,
2013-04-11 22:32:00,51.0,43.7,29.88,SSE,153,1.0,14.0,76,0.00,,,0.00,Wunderground v.1.15,2013-04-12 03:32:00,
2013-04-11 22:37:00,50.8,43.5,29.89,SSE,153,1.0,14.0,76,0.00,,,0.00,Wunderground v.1.15,2013-04-12 03:37:00,
2013-04-11 22:42:00,50.5,43.6,29.89,SSE,164,0.0,14.0,77,0.00,,,0.00,Wunderground v.1.15,2013-04-12 03:42:00,
2013-04-11 22:48:00,50.1,43.2,29.89,SSE,163,0.0,14.0,77,0.00,,,0.00,Wunderground v.1.15,2013-04-12 03:48:00,
2013-04-11 22:53:00,50.0,43.1,29.90,SSE,163,0.0,14.0,77,0.00,,,0.00,Wunderground v.1.15,2013-04-12 03:53:00,
2013-04-11 22:59:00,50.0,42.7,29.90,SSE,163,0.0,14.0,76,0.00,,,0.00,Wunderground v.1.15,2013-04-12 03:59:00,
2013-04-11 23:00:00,50.0,42.7,29.90,SSE,164,0.0,14.0,76,0.00,,,0.00,Wunderground v.1.15,2013-04-12 04:00:00,
2013-04-11 23:01:00,50.0,43.1,29.90,SSE,163,0.0,14.0,77,0.00,,,0.00,Wunderground v.1.15,2013-04-12 04:01:00,
2013-04-11 23:03:00,50.0,43.1,29.90,SSE,163,0.0,14.0,77,0.00,,,0.00,Wunderground v.1.15,2013-04-12 04:03:00,
2013-04-11 23:06:00,50.0,42.7,29.90,SSE,163,0.0,14.0,76,0.00,,,0.00,Wunderground v.1.15,2013-04-12 04:06:00,
2013-04-11 23:12:00,49.8,42.9,29.90,SSE,155,1.0,14.0,77,0.00,,,0.00,Wunderground v.1.15,2013-04-12 04:12:00,
2013-04-11 23:17:00,50.4,43.1,29.91,SSW,192,2.0,14.0,76,0.00,,,0.00,Wunderground v.1.15,2013-04-12 04:17:00,
2013-04-11 23:22:00,50.5,43.2,29.91,South,172,3.0,14.0,76,0.00,,,0.00,Wunderground v.1.15,2013-04-12 04:22:00,
2013-04-11 23:28:00,50.7,43.1,29.91,SSE,153,2.0,14.0,75,0.00,,,0.00,Wunderground v.1.15,2013-04-12 04:28:00,
2013-04-11 23:33:00,50.7,43.1,29.91,SSE,164,2.0,14.0,75,0.00,,,0.00,Wunderground v.1.15,2013-04-12 04:33:00,
2013-04-11 23:39:00,50.6,43.0,29.91,SSE,158,2.0,14.0,75,0.00,,,0.00,Wunderground v.1.15,2013-04-12 04:39:00,
2013-04-11 23:44:00,50.1,42.5,29.91,SSE,158,0.0,14.0,75,0.00,,,0.00,Wunderground v.1.15,2013-04-12 04:44:00,
2013-04-11 23:49:00,49.6,42.3,29.92,SSE,158,0.0,14.0,76,0.00,,,0.00,Wunderground v.1.15,2013-04-12 04:49:00,
2013-04-11 23:54:00,49.0,42.4,29.92,SSE,158,0.0,14.0,78,0.00,,,0.00,Wunderground v.1.15,2013-04-12 04:54:00,
2013-04-11 23:59:00,48.5,42.6,29.91,SW,221,0.0,14.0,80,0.00,,,0.00,Wunderground v.1.15,2013-04-12 04:59:00,